Starlink 32139

operational
NORAD ID: 61510 Int'l Des: 2024-183 Owner: SPXS Country: US Constellation: starlink
LEOCIRCULAR

关于 Starlink 32139

正在加载描述...

实时位置

正在加载3D地球...

即将过境

高度历史

Altitude vs Time

uPlot chart will show altitude changes over time

两行轨道根数

1 61510U 24183B 25305.62029775 -.00000962 00000-0 -20349-4 0 9995
2 61510 53.1613 17.3812 0001188 78.8360 281.2774 15.30192706 60041
Epoch: Nov 1, 2025 • Age: 13 hours

当前状态

高度 478.6 km
速度 7.63 km/s
星下点 41.44°N, 52.5°E
发射日期 Oct 15, 2024
运行时间 1 years
类型 internet

技术详情

分类 Payload
质量 730.00 kg
干质量 700.00 kg
总质量 730.00 kg
长度 0.30 m
直径 4.10 m
跨度 29.00 m
形状 Box + pan
制造商 SPXS
平台类型 Starlink V2M
阶段状态 In Orbit
所有者/国家 SPXS/US

大型星座

Loading constellations...